Regional Weather Roundup
Issued by NWS Newport/Morehead, NC

Current Version | Previous Version | Text Only | Print | Product List | Glossary On
Versions: 1 2 3 4 5 6 7 8 9 10 11 12 13 14 15 16 17 18 19 20 21 22 23 24 25 26 27 28 29 30 31 32 33 34 35 36 37 38 39 40 41 42 43 44 45 46 47 48 49 50
000
ASUS42 KMHX 290725
RWRMHX
WEATHER ROUNDUP FOR EASTERN NORTH CAROLINA
NATIONAL WEATHER SERVICE NEWPORT/MOREHEAD CITY NC
300 AM EDT SAT APR 29 2017

NOTE: "FAIR" INDICATES FEW OR NO CLOUDS BELOW 12,000 FEET
WITH NO SIGNIFICANT WEATHER AND/OR OBSTRUCTIONS TO VISIBILITY

NCZ015>017-031-032-045>047-102-103-290800-
NORTH COAST

CITY           SKY/WX    TMP DP  RH WIND       PRES   REMARKS
EDENTON        CLOUDY    76  73  88 SW10      30.12S
ELIZABETH CITY MOCLDY    74  73  97 S12G20    30.11S
KITTY HAWK     MOSUNNY   73  73 100 S3        30.12S
MANTEO         CLOUDY    73  72  94 SW17      30.13F

$$

NCZ045>047-081-094-103-104-290800-
CENTRAL COAST

CITY           SKY/WX    TMP DP  RH WIND       PRES   REMARKS
FRISCO         MOCLDY    74  72  93 SW14      30.16F FOG

$$

NCZ095-097-098-100-101-290800-
SOUTHERN COAST

CITY           SKY/WX    TMP DP  RH WIND       PRES   REMARKS
BEAUFORT       CLOUDY    73  73 100 S8        30.16F FOG
CEDAR ISLAND   NOT AVBL
JACKSONVILLE   MOCLDY    74  73  97 S8        30.14S
PINEY ISLAND   CLOUDY   N/A N/A N/A S13       30.15F
WILMINGTON     CLOUDY    74  73  97 S9        30.15S


$$

NCZ011>013-027>030-043-044-078>080-089-090>093-098-290800-
COASTAL PLAIN

CITY           SKY/WX    TMP DP  RH WIND       PRES   REMARKS
AHOSKIE          N/A     74  71  91 S3        30.11R
CLINTON        MOCLDY    75  73  93 S7        30.13S
ELIZABETHTOWN  MOCLDY    75  72  90 S6        30.13F
GOLDSBORO      CLOUDY    75  75 100 S8        30.11S
GREENVILLE     CLOUDY    73  73 100 SW10      30.13S
HAVELOCK       NOT AVBL
KENANSVILLE    CLOUDY    75  72  88 SW5       30.14S
KINSTON        CLOUDY    75  71  88 SW10      30.14R
NEW BERN       CLOUDY    75  73  93 S8        30.15F
RICHLANDS      CLOUDY    75  72  90 S9        30.15S
ROCKY MOUNT    CLOUDY    75  72  90 S13G21    30.11S
WASHINGTON     MOCLDY    74  71  89 SW10G17   30.13S
WHITEVILLE     CLOUDY    75  72  89 S8        30.13F

$$

AMZ130-135-150-152-154-156-158-170-250-252-270-ANZ085-086-088-633-658-670-290800-
MARINE OBSERVATIONS

STATION/POSITION TIME  TEMP    WIND        PRES    WAVE   SWELL
                       AIR SEA DIR/SP/G            HT/PER HT/PER
                 (UTC) (F)     (DEG/KT/KT) (MB)    (FT/S) (FT/S)
CHESAPEAKE LIGHT NOT AVBL
64 E VA BEACH    0650   62 57  210/ 14/ 16 1019.9    4/ 8   2/ 8
DUCK             0700   74 59  200/ 16/ 20 1019.0
2 E DUCK         0700      59                N/A     2/ 8
OREGON INLET     0700   74 75  190/ 17/ 19 1020.3
13E OREGON INLT  0648      62                N/A     3/ 6   2/ 8
HATTERAS CG      0700   73 72  190/  5/  8 1020.9
DIAMOND BUOY     0650   77 76  200/ 17/ 21 1021.3    4/ 8   2/ 8
CAPE LOOKOUT     0700   73     200/  7/  9 1021.2
BEAUFORT LAB     0700   72 70  190/  7/  8 1020.5
30 SE NEW RVR IN 0708   72     200/ 10/ 12 1021.4
30 SE NEW RVR IN 0643      72                N/A     3/ 8
27 SE WRIGHTSVLE 0708   73 72  180/  8/ 12 1020.1
5 SE WRIGHTSVLE  0708   72 70  200/ 10/ 12 1021.0
225 S CAPE HAT   0650   74 74  150/ 14/ 16 1023.6    4/ 8   2/ 8
41 SE CHARLESTON 0710   75 74  170/ 12/ 16 1020.5

$$




USA.gov is the U.S. government's official web portal to all federal, state and local government web resources and services.